sat.trackr.live / text

‹ back to catalog

STARLINK-31939

NORAD 60026 · 2024-111L

PAYLOAD ACTIVE UNKNOWN

§ Identity

Operator
Country
US
Launch date
2024-06-08
Launch site
AFETR
Launch vehicle
Mass (kg)
RCS (m²)

Purposes: comms

External: N2YO · Heavens-Above · Gunter

§ Orbital elements

Epoch: 2026-05-25T02:12:38.258208Z

Period
94.11 min
Inclination
53.1604°
Eccentricity
0.0001237
Mean motion
15.30204772 rev/d
Perigee alt
474.4 km
Apogee alt
476.0 km
Semi-major
6,853.3 km
B*
8.5639e-5
RAAN
80.5598°
Arg perigee
85.1062°
Mean anomaly
275.0080°
Rev number
11,073

§ Raw data

STARLINK-319391 60026U 24111L   26145.09210947  .00002178  00000+0  85639-4 0  99952 60026  53.1604  80.5598 0001237  85.1062 275.0080 15.30204772110730

JSON: /api/v1/satellites/60026 · /tle

For live sub-satellite position, see the globe view (requires WebGL).

§ Visibility from observer

Set your observer location to see the next 7 days of passes ≥ 10°. The values pass through the URL so the page stays shareable.

No JS? Fill the form by hand. The geolocation button needs JavaScript.